Location: Prague
(50.0830°N, 14.4670°E)
Time: 21:21:23
(UTC+01:00)

HuskySat-1 - Pass Details

Date: 07 December 2021
Orbit: 439 x 453 km, 51.6° (Epoch: 25 January)

Event Time Altitude Azimuth Distance (km) Brightness Sun altitude
Rises 17:48:53 0° 254° (WSW) 2,470 ? -16.4°
Reaches altitude 10° 17:51:02 10° 254° (WSW) 1,596 ? -16.8°
Maximum altitude 17:54:38 88° 339° (NNW) 461 ? -17.3°
Enters shadow 17:55:34 48° 73° (ENE) 607 ? -17.5°
